This is the latest recevied weather packets stored in our database for station/object KD8BMB. If no packets are shown the sender has not sent any weather packets the latest 10 day(s).
| Time | Temp. | Humidity | Pressure | Rain* | Wind** | Luminosity | Snow |
|---|---|---|---|---|---|---|---|
| 1777423812 | 13.33° C | 77% | 1012.4 hPa | 0 mm | - | 0 W/m² | - |
| 1777423509 | 13.33° C | 76% | 1012.7 hPa | 0 mm | - | 0 W/m² | - |
| 1777423203 | 13.89° C | 76% | 1012.5 hPa | 0 mm | - | 0 W/m² | - |
| 1777422902 | 13.89° C | 75% | 1012.2 hPa | 0 mm | - | 0 W/m² | - |
| 1777422599 | 13.89° C | 75% | 1012.1 hPa | 0 mm | - | 3 W/m² | - |
| 1777422296 | 13.89° C | 74% | 1011.9 hPa | 0 mm | - | 5 W/m² | - |
| 1777421995 | 13.89° C | 74% | 1012.1 hPa | 0 mm | - | 7 W/m² | - |
| 1777421690 | 14.44° C | 74% | 1012 hPa | 0 mm | - | 10 W/m² | - |
| 1777421385 | 14.44° C | 72% | 1012.2 hPa | 0 mm | - | 13 W/m² | - |
| 1777421082 | 15° C | 72% | 1012 hPa | 0 mm | - | 17 W/m² | - |
| 1777420778 | 15° C | 72% | 1011.8 hPa | 0 mm | - | 20 W/m² | - |
| 1777420474 | 15° C | 71% | 1011.6 hPa | 0 mm | - | 24 W/m² | - |
| 1777420172 | 15° C | 71% | 1011.5 hPa | 0 mm | - | 26 W/m² | - |
| 1777419867 | 15° C | 70% | 1011.8 hPa | 0 mm | - | 31 W/m² | - |
| 1777419565 | 15.56° C | 70% | 1011.8 hPa | 0 mm | - | 35 W/m² | - |
| 1777419263 | 15.56° C | 69% | 1011.8 hPa | 0 mm | - | 42 W/m² | - |
| 1777418961 | 15.56° C | 69% | 1012.1 hPa | 0 mm | - | 53 W/m² | - |
| 1777418656 | 15.56° C | 69% | 1012 hPa | 0 mm | - | 42 W/m² | - |
| 1777418352 | 16.11° C | 68% | 1011.9 hPa | 0 mm | - | 79 W/m² | - |
| 1777418048 | 16.11° C | 67% | 1012 hPa | 0 mm | - | 92 W/m² | - |
| 1777417744 | 16.11° C | 69% | 1011.8 hPa | 0 mm | - | 104 W/m² | - |
| 1777417439 | 16.11° C | 69% | 1011.6 hPa | 0 mm | - | 121 W/m² | - |
| 1777417136 | 16.11° C | 67% | 1011.5 hPa | 0 mm | - | 140 W/m² | - |
| 1777416832 | 16.67° C | 68% | 1011.5 hPa | 0 mm | - | 152 W/m² | - |
| 1777416528 | 16.11° C | 69% | 1011.3 hPa | 0 mm | - | 158 W/m² | - |
* Rain latest hour (hover to see other rain measurements)
** Current wind speed in m/s (hover to see current wind gust speed)